Location: �mondeville
(49.4591°N, 1.3431°W)
Time: 13:23:18
(UTC+00:00)

Cosmos 2184 Rocket - Pass Details

Date: 22 October 2019
Orbit: 960 x 1001 km, 82.9° (Epoch: 13 November)

Event Time Altitude Azimuth Distance (km) Brightness Sun altitude
Exits shadow 04:04:20 12° 185° (S) 2,536 6.0 -25.3°
Maximum altitude 04:10:06 85° 97° (E) 991 4.0 -24.4°
Drops below altitude 10° 04:16:26 10° 10° (N) 2,760 6.6 -23.4°
Sets 04:18:59 0° 10° (N) 3,718 7.3 -23.0°
